Temperature
25 25 25 25 24 24 24 23 23 23 23 23 22 21 19 18 17 16 16 15 14 13 13 12 11 11 10 10 9 9 9 8 8 8 8 8 8 8 8 8 8 9 9 9
25 25 25 24 24 23 23 23 23 23 23 23 21 20 19 18 16 16 15 14 13 13 12 11 10 10 9 9 8 8 8 8 8 7 7 7 7 7 7 7 7 8 8 8
25 25 24 24 24 23 23 23 23 22 22 22 21 19 18 16 15 15 14 13 12 12 11 10 10 9 9 8 8 8 7 7 7 7 7 7 7 7 7 7 7 7 7 8
25 24 23 24 24 24 23 23 23 23 22 21 20 18 17 16 15 14 13 12 11 11 10 10 10 9 8 8 8 7 7 7 7 7 6 6 6 6 6 6 6 6 6 7
25 25 25 24 23 23 22 22 23 22 21 20 19 18 19 16 14 13 12 11 11 10 10 9 9 8 8 7 7 7 7 6 6 6 6 6 6 6 6 6 6 6 6 6
24 23 23 24 23 22 22 22 22 21 20 19 18 18 18 15 13 12 11 11 10 9 9 9 8 7 7 7 7 6 6 6 6 6 6 6 6 5 5 5 5 6 6 6
24 24 25 24 23 22 22 22 21 20 19 18 17 16 15 14 13 12 11 10 10 9 9 8 7 7 6 6 6 6 6 6 6 6 6 6 5 5 5 5 5 5 5 6
24 23 24 23 23 22 22 20 19 18 18 17 16 15 14 13 12 11 11 10 10 9 8 7 7 6 6 6 6 6 6 6 6 6 6 6 5 5 5 5 5 5 5 6
24 24 23 22 22 21 20 19 18 18 17 16 15 15 14 13 12 11 10 10 9 8 8 7 7 6 6 6 6 5 5 5 6 6 6 6 5 5 5 5 5 5 5 6
23 24 23 22 21 20 19 18 17 17 16 15 15 14 13 12 11 10 10 9 9 8 7 7 7 6 6 6 6 6 5 6 6 6 6 6 6 6 5 5 5 5 5 5
23 23 23 22 21 20 19 18 17 16 15 14 14 13 12 12 11 10 9 9 8 8 7 7 7 6 6 6 6 6 6 6 6 6 6 6 6 6 6 5 5 5 5 5
24 24 23 23 21 19 18 17 16 16 15 14 13 13 12 11 10 10 9 9 8 8 7 7 6 6 6 6 6 6 6 6 6 6 6 6 6 6 6 5 5 5 5 5
23 23 22 21 19 18 18 17 16 15 14 13 13 12 11 11 10 10 9 9 8 7 7 6 6 6 6 6 6 6 6 6 6 6 6 6 6 6 6 6 5 5 5 5
21 20 21 20 20 18 17 16 16 15 14 13 13 12 11 10 10 9 9 8 8 7 7 6 6 6 6 6 6 6 6 6 6 6 6 6 6 6 6 6 6 5 5 5
20 19 20 20 19 18 16 16 15 15 14 13 13 12 11 10 9 9 9 8 7 7 7 6 6 6 6 6 6 6 6 6 6 7 7 7 6 6 6 6 6 6 5 5
20 19 19 18 18 17 16 16 16 15 14 13 12 11 11 10 9 9 8 8 7 7 7 6 6 6 6 6 6 7 7 6 7 7 7 7 7 7 6 6 6 6 6 6
20 20 19 18 18 17 17 16 15 15 14 13 12 11 10 10 9 9 8 8 7 7 6 6 6 7 7 6 7 7 7 7 7 7 7 7 7 7 7 7 7 6 6 6
19 20 19 19 19 18 17 16 15 14 13 12 11 11 10 9 9 8 8 8 7 7 7 7 7 7 7 7 7 7 7 7 7 7 7 7 7 7 7 7 7 7 7 6
19 19 19 18 18 17 16 15 14 13 12 12 11 10 10 9 9 8 8 7 7 7 7 7 7 7 7 7 7 7 7 7 7 7 7 7 7 7 7 7 7 7 7 7
18 18 18 17 16 16 15 14 13 13 12 11 10 10 10 9 8 8 8 7 7 6 7 7 7 7 7 7 7 7 7 7 7 8 8 8 8 8 8 8 8 8 7 7
17 17 17 16 16 15 15 14 13 12 12 11 10 10 9 9 8 8 8 8 7 7 7 7 7 7 7 7 7 7 7 8 8 8 8 8 8 8 8 8 8 8 8 8
16 16 16 16 15 15 14 14 13 12 11 11 10 10 9 9 9 8 8 7 7 7 7 7 7 7 8 8 7 7 8 8 8 8 8 9 9 9 9 9 9 9 9 9
15 15 15 15 15 15 14 14 13 12 11 11 10 10 9 9 9 8 8 8 7 8 8 7 7 8 8 8 7 8 8 8 8 8 9 9 9 9 9 9 10 10 10 10
13 14 14 14 14 14 14 14 13 12 11 11 10 10 9 9 9 8 8 8 7 8 7 7 8 8 8 8 7 8 8 8 8 9 9 9 10 10 10 10 10 10 10 11
13 13 13 13 13 14 14 13 12 12 11 11 11 10 9 9 8 8 8 7 7 7 7 7 8 8 8 8 8 8 8 8 8 9 9 9 10 10 10 11 11 11 11 11
13 13 13 13 13 13 13 13 13 12 12 11 11 10 10 9 8 8 8 7 7 7 7 7 7 8 8 8 8 8 8 8 9 9 9 10 10 10 10 11 11 11 11 11
13 13 13 13 13 13 13 13 12 12 12 11 11 10 10 9 8 8 7 7 7 6 6 6 6 7 7 8 8 8 8 8 9 9 9 9 10 10 10 10 11 11 11 11
Wind_Speed
2 2 2 2 1 2 4 6 9 12 14 14 12 12 13 14 16 17 17 17 17 17 18 18 19 18 18 19 19 19 19 19 19 19 19 19 19 19 18 18 19 18 18 18
3 2 4 5 4 4 4 7 10 13 13 10 10 12 14 16 17 17 17 18 18 19 19 19 19 19 19 19 18 18 19 19 19 19 19 19 18 18 18 17 17 17 17 18
5 2 7 7 6 5 5 9 11 13 14 15 15 15 16 16 16 16 17 19 20 20 19 19 19 18 18 18 18 18 19 19 19 19 19 19 19 18 18 17 17 16 17 17
6 5 6 3 3 2 7 11 10 11 13 14 14 15 15 12 12 15 18 19 19 19 19 19 19 19 18 18 18 18 19 18 18 19 19 18 18 18 17 15 15 14 15 16
6 9 8 3 4 2 8 12 7 9 13 14 14 15 10 8 12 16 17 18 18 19 19 19 19 18 18 18 18 18 18 18 18 18 19 18 18 17 16 14 14 13 13 13
7 9 8 2 5 0 6 6 4 9 12 14 15 14 12 15 16 17 17 17 17 18 18 18 17 18 18 18 18 18 18 18 18 18 18 18 18 16 14 13 13 12 12 12
9 10 5 6 5 3 7 9 8 10 10 12 12 12 15 17 16 16 17 18 17 17 17 16 17 17 17 17 17 17 18 18 18 18 17 17 15 13 13 12 12 11 11 10
6 7 2 8 3 3 7 6 7 8 9 10 12 14 15 16 16 17 17 18 17 16 16 16 16 16 17 16 17 17 17 17 18 17 16 13 13 13 12 11 10 10 9 9
5 4 3 5 3 2 4 6 6 7 9 10 13 14 15 15 16 16 17 17 16 16 17 16 15 15 16 16 16 16 16 17 16 16 14 13 12 11 10 8 7 7 7 7
7 7 5 6 6 5 5 6 6 6 8 10 12 14 15 15 15 16 16 16 16 16 17 17 16 15 14 15 15 15 16 16 15 14 13 12 10 8 7 6 6 6 6 6
10 9 6 7 6 5 5 5 5 6 7 9 11 13 14 14 15 15 15 15 15 15 16 17 16 16 15 14 14 14 15 14 13 12 11 10 9 6 7 6 5 5 5 4
8 4 5 3 3 3 4 5 5 6 8 9 10 12 14 14 14 14 15 16 16 16 16 17 16 16 15 14 14 13 12 12 11 10 9 9 8 6 2 3 4 3 4 5
7 4 5 3 4 4 4 4 4 5 7 9 9 11 12 13 13 14 15 16 16 16 16 16 16 16 15 15 14 14 12 12 10 10 9 9 8 6 4 2 3 4 4 3
7 6 6 7 5 5 5 4 4 4 5 7 9 10 12 13 14 15 15 15 15 16 15 15 15 15 15 15 14 14 12 11 10 9 8 7 7 6 5 4 3 3 5 5
11 11 8 5 6 6 5 5 5 5 6 7 8 9 11 13 14 15 14 14 15 15 14 15 15 16 15 15 14 14 11 8 9 8 7 7 6 5 4 4 4 3 3 4
9 11 10 9 8 7 7 6 6 5 5 6 8 9 11 12 13 14 14 14 14 15 14 14 15 16 16 15 14 11 8 8 9 8 7 6 5 5 4 4 3 3 4 3
10 12 13 12 10 9 8 6 5 5 5 6 7 9 11 12 13 13 14 14 13 13 12 13 15 16 15 14 13 10 8 7 7 7 6 6 6 5 4 4 4 3 3 4
10 10 9 9 9 8 8 6 5 4 4 5 6 8 10 11 13 14 14 14 13 12 12 13 15 17 14 13 12 10 8 7 6 6 5 5 5 4 4 4 4 3 2 3
7 7 8 8 7 7 6 6 5 4 4 4 6 7 9 10 11 12 13 13 13 13 14 16 17 15 14 14 14 9 8 7 5 5 4 4 3 4 4 4 4 4 3 2
5 7 8 9 8 8 7 6 6 5 5 4 5 7 8 10 11 12 12 11 9 10 14 15 15 13 14 14 16 9 8 7 6 5 5 4 4 4 4 4 3 3 3 2
5 7 9 9 9 9 8 7 6 6 5 5 5 6 8 9 10 10 11 10 10 12 14 13 10 11 12 14 14 8 7 6 5 5 4 4 4 4 4 3 3 3 2 2
7 7 9 9 9 9 8 7 7 7 6 6 6 6 7 8 9 9 9 7 10 11 12 9 10 13 17 17 8 8 7 6 5 4 4 4 4 4 4 4 4 3 3 3
9 8 8 9 10 9 9 8 8 8 8 7 6 5 6 7 7 8 8 8 9 12 11 8 12 17 20 11 7 7 7 7 6 5 4 4 4 4 4 5 4 4 4 5
11 10 9 9 10 10 11 11 9 8 8 7 6 5 5 6 5 5 6 6 7 10 9 8 11 15 15 7 7 7 7 6 6 5 5 4 4 5 5 5 6 6 6 7
12 11 11 10 11 11 11 10 10 10 9 7 7 6 5 4 5 6 6 7 7 8 9 7 8 12 9 7 8 8 7 7 8 6 4 4 4 4 5 5 6 6 7 7
13 12 10 10 11 10 9 9 9 9 9 8 7 6 4 3 3 4 4 6 7 7 7 7 8 8 7 7 7 8 7 7 6 6 6 5 5 5 5 6 6 6 6 7
15 13 10 10 11 11 11 10 10 10 9 9 7 6 5 3 2 2 4 5 6 6 6 6 6 6 7 7 7 7 7 6 6 6 6 5 5 4 5 6 5 6 6 7
Wind_Direction
18 354 297 276 277 326 344 340 324 325 320 329 339 331 324 319 319 318 318 319 319 317 316 315 313 311 309 308 308 307 303 299 297 296 294 291 288 285 281 275 268 261 255 249
257 245 271 259 248 264 306 322 320 316 323 350 330 317 317 320 321 319 320 321 320 318 317 315 314 311 310 309 308 305 301 300 299 298 295 291 288 285 281 276 272 267 260 252
301 279 277 262 229 248 301 326 321 316 326 331 322 322 323 320 318 320 321 321 319 318 316 315 313 313 310 309 307 304 301 299 299 297 295 293 291 288 284 279 274 268 261 253
296 284 283 52 107 267 301 313 317 312 320 327 322 320 312 310 320 321 320 319 319 317 316 315 316 315 312 310 307 305 303 303 303 302 299 297 293 289 285 281 275 271 263 256
287 291 293 157 178 276 309 310 321 322 323 323 325 315 315 3 334 321 319 318 317 317 316 317 316 316 314 310 309 308 307 308 308 306 303 299 294 290 288 283 275 268 262 256
276 295 301 89 125 96 291 300 23 326 321 324 323 318 332 342 329 324 322 320 319 317 316 317 319 318 313 310 310 309 310 309 307 303 300 297 294 291 287 281 275 269 262 254
275 282 288 116 135 224 301 345 346 327 322 320 322 313 315 321 323 322 320 320 319 318 318 319 318 315 310 310 309 311 310 307 305 303 300 297 295 291 286 280 274 270 264 256
273 278 289 133 174 289 326 328 320 320 319 318 314 312 316 319 321 321 321 322 322 321 320 319 317 314 311 311 311 311 310 307 306 306 305 303 300 295 288 282 276 271 262 252
278 301 95 176 238 296 306 302 312 314 317 318 314 317 320 321 322 322 322 322 323 323 320 318 319 318 313 312 313 312 309 307 307 307 308 307 303 300 296 285 275 272 262 250
265 266 233 224 240 254 262 280 299 305 311 314 315 319 321 322 323 323 323 323 326 324 320 319 320 319 315 313 313 312 310 309 310 310 310 311 308 306 304 297 288 280 274 261
260 267 255 232 235 250 249 257 276 293 306 313 316 317 321 321 322 323 322 324 325 322 319 318 320 319 318 318 316 313 311 310 312 314 314 314 316 319 318 321 324 306 297 290
276 262 240 229 176 210 230 247 269 291 303 312 316 317 320 321 323 322 322 323 323 324 321 320 321 320 321 322 321 315 313 315 316 317 319 322 326 332 6 340 359 332 313 313
261 245 235 186 180 199 224 244 263 282 301 310 316 319 320 321 321 322 322 326 327 325 321 321 322 322 324 327 325 319 314 315 316 319 325 332 337 340 351 52 96 65 36 18
229 219 220 219 215 203 218 232 258 278 295 307 315 319 320 322 323 325 327 328 327 324 322 325 326 326 329 328 324 321 318 315 314 322 333 341 348 352 359 10 42 77 75 63
221 217 227 209 197 194 207 224 252 276 298 308 315 320 324 325 325 325 327 327 327 325 328 330 328 329 331 327 324 322 323 324 325 328 338 350 355 1 16 30 51 68 90 87
225 215 216 211 210 208 213 228 256 285 300 308 316 323 326 325 323 324 330 332 330 328 328 329 329 330 328 325 325 324 324 320 317 326 342 355 3 13 29 40 57 70 84 93
223 213 213 216 216 215 220 230 252 276 291 301 316 322 324 326 327 331 333 334 331 326 330 336 333 330 327 327 329 327 325 325 313 325 356 4 10 20 32 40 47 60 76 76
234 231 219 213 209 206 209 218 233 253 273 295 308 318 326 329 330 331 331 331 329 331 343 344 337 330 329 334 334 327 327 334 341 351 3 10 9 20 35 45 45 53 87 119
231 217 200 189 187 190 196 207 221 236 252 277 301 315 323 327 330 329 329 329 330 337 343 341 333 331 335 338 335 325 334 342 350 1 8 7 5 33 41 45 44 43 55 76
237 214 199 190 185 188 192 200 211 221 235 261 288 306 319 329 331 330 330 327 343 346 335 332 330 335 337 337 331 330 342 351 358 8 15 21 30 38 39 37 40 42 49 62
273 232 215 206 200 198 201 205 214 223 232 247 273 298 315 323 328 330 329 331 345 350 336 324 332 342 338 329 316 335 353 360 3 14 29 35 44 46 43 39 46 50 54 67
307 266 239 226 215 212 209 211 218 227 233 242 260 286 305 316 326 329 330 336 338 353 338 334 345 343 334 323 332 354 1 4 10 21 34 36 44 49 44 43 51 58 71 78
314 289 261 242 229 222 216 217 220 224 232 239 250 272 297 315 321 325 329 346 340 342 331 340 346 337 329 330 347 355 2 6 8 20 30 38 50 52 49 51 59 64 69 83
313 297 276 257 242 231 224 221 220 220 227 234 239 250 275 295 308 325 335 341 344 335 330 349 344 334 327 345 352 355 -0 3 4 13 23 35 51 56 57 56 60 65 69 77
309 299 282 262 246 237 231 228 223 218 222 227 231 227 244 276 306 324 329 333 345 335 332 346 347 336 344 355 354 354 358 1 352 349 13 19 32 54 58 57 58 63 65 68
299 290 283 268 259 251 237 225 220 217 217 220 222 222 230 246 279 303 320 333 341 338 335 343 349 348 354 355 356 353 352 350 349 355 9 10 22 35 42 43 51 56 65 70
286 281 273 267 259 247 241 231 226 221 216 216 219 212 214 226 255 313 330 337 344 347 347 347 350 352 352 355 359 356 353 352 352 352 358 4 11 22 29 26 33 43 51 63
Height
1500 1500 1500 1502 1503 1504 1505 1506 1507 1505 1502 1498 1500 1502 1504 1503 1501 1499 1497 1494 1492 1489 1485 1481 1477 1473 1468 1464 1459 1455 1450 1446 1442 1438 1434 1431 1428 1425 1423 1421 1420 1420 1420 1421
1502 1501 1501 1503 1503 1504 1505 1504 1503 1501 1499 1498 1502 1503 1502 1501 1499 1496 1494 1491 1488 1484 1480 1476 1472 1467 1462 1457 1453 1448 1443 1439 1434 1430 1426 1422 1419 1416 1413 1411 1410 1409 1409 1410
1499 1499 1503 1503 1500 1503 1503 1501 1501 1501 1500 1498 1499 1500 1500 1499 1497 1494 1491 1488 1484 1480 1476 1471 1466 1461 1456 1451 1447 1442 1437 1432 1427 1423 1418 1414 1411 1407 1404 1402 1400 1399 1399 1400
1498 1505 1513 1501 1498 1500 1502 1500 1497 1497 1498 1499 1499 1499 1498 1495 1494 1492 1489 1485 1480 1476 1471 1466 1461 1456 1451 1446 1441 1436 1431 1425 1421 1416 1411 1406 1402 1398 1395 1393 1391 1389 1389 1390
1499 1499 1496 1497 1499 1500 1501 1499 1496 1498 1498 1498 1497 1496 1490 1492 1492 1490 1486 1481 1477 1472 1466 1461 1456 1451 1446 1440 1435 1430 1425 1419 1414 1409 1403 1398 1394 1390 1387 1384 1382 1381 1380 1381
1497 1506 1506 1496 1497 1501 1502 1497 1497 1499 1498 1497 1496 1491 1488 1490 1489 1485 1482 1477 1472 1467 1462 1457 1451 1446 1440 1435 1430 1424 1419 1413 1407 1402 1396 1391 1386 1382 1379 1376 1374 1373 1373 1373
1495 1498 1490 1492 1497 1500 1501 1499 1498 1498 1498 1497 1495 1495 1492 1488 1485 1482 1478 1473 1468 1463 1458 1452 1447 1441 1435 1430 1424 1419 1413 1407 1401 1396 1390 1384 1379 1375 1372 1370 1368 1367 1366 1366
1495 1499 1495 1493 1495 1496 1498 1497 1497 1497 1497 1496 1494 1492 1489 1486 1482 1478 1474 1469 1464 1459 1453 1448 1442 1437 1431 1425 1419 1413 1408 1402 1396 1390 1385 1380 1374 1370 1367 1364 1362 1361 1360 1361
1489 1490 1491 1492 1493 1495 1496 1496 1496 1495 1495 1494 1491 1489 1486 1482 1479 1475 1470 1466 1461 1455 1449 1444 1439 1433 1426 1420 1414 1408 1403 1397 1391 1386 1380 1375 1370 1366 1362 1360 1358 1356 1356 1356
1488 1484 1488 1490 1492 1493 1494 1494 1494 1493 1493 1491 1489 1486 1483 1480 1476 1472 1467 1462 1457 1452 1446 1440 1434 1429 1423 1416 1410 1404 1398 1393 1387 1382 1376 1371 1367 1363 1360 1357 1355 1353 1353 1353
1486 1484 1486 1487 1489 1490 1491 1491 1491 1491 1490 1489 1487 1484 1481 1477 1473 1469 1464 1459 1454 1448 1442 1436 1430 1424 1418 1412 1406 1401 1395 1390 1384 1379 1374 1369 1365 1361 1357 1355 1353 1352 1351 1351
1480 1480 1482 1484 1486 1487 1488 1488 1488 1488 1487 1486 1484 1481 1478 1474 1470 1466 1461 1456 1451 1445 1439 1433 1427 1421 1415 1409 1403 1397 1392 1387 1382 1377 1372 1367 1363 1359 1356 1354 1351 1350 1350 1350
1479 1480 1481 1483 1484 1485 1485 1486 1486 1485 1485 1483 1481 1479 1475 1471 1467 1463 1458 1453 1448 1442 1436 1430 1424 1418 1412 1406 1400 1395 1390 1385 1380 1376 1371 1366 1362 1359 1356 1354 1352 1351 1350 1350
1478 1479 1479 1480 1481 1482 1482 1483 1483 1483 1482 1480 1478 1476 1472 1469 1464 1460 1455 1450 1445 1439 1433 1427 1421 1415 1409 1403 1398 1392 1388 1383 1379 1375 1371 1367 1362 1359 1357 1355 1354 1352 1352 1351
1474 1475 1476 1477 1478 1479 1479 1480 1480 1479 1479 1477 1475 1473 1470 1466 1461 1457 1452 1447 1442 1436 1431 1425 1418 1412 1406 1401 1396 1391 1386 1382 1379 1375 1371 1368 1364 1361 1359 1357 1355 1354 1354 1353
1469 1471 1472 1474 1475 1476 1476 1477 1477 1476 1475 1474 1472 1470 1467 1463 1459 1454 1450 1444 1439 1434 1428 1422 1416 1410 1404 1399 1394 1390 1385 1382 1378 1376 1373 1369 1366 1363 1361 1359 1358 1357 1356 1356
1465 1466 1467 1469 1471 1472 1473 1473 1473 1473 1472 1471 1469 1466 1463 1460 1456 1451 1447 1442 1437 1432 1427 1421 1415 1409 1403 1398 1394 1389 1385 1382 1379 1376 1374 1371 1368 1366 1363 1362 1360 1359 1358 1358
1462 1463 1464 1465 1466 1468 1469 1469 1469 1469 1468 1467 1466 1463 1460 1457 1453 1448 1443 1439 1434 1430 1426 1419 1413 1407 1402 1398 1393 1389 1386 1383 1380 1377 1375 1372 1370 1368 1366 1364 1363 1361 1360 1360
1458 1460 1461 1462 1463 1464 1465 1465 1466 1465 1465 1464 1462 1460 1458 1454 1450 1446 1441 1436 1432 1428 1423 1417 1412 1407 1402 1398 1394 1390 1387 1384 1381 1379 1377 1374 1372 1370 1368 1367 1365 1364 1363 1362
1457 1457 1458 1459 1460 1460 1461 1461 1461 1461 1461 1460 1459 1457 1455 1452 1448 1443 1439 1436 1432 1427 1421 1416 1411 1406 1402 1398 1394 1391 1388 1385 1383 1380 1378 1377 1375 1373 1371 1369 1368 1366 1365 1364
1456 1456 1456 1456 1457 1457 1457 1458 1458 1458 1458 1457 1456 1454 1452 1449 1445 1441 1437 1434 1430 1425 1420 1415 1411 1406 1402 1398 1395 1393 1390 1387 1385 1383 1381 1379 1377 1376 1374 1372 1370 1369 1367 1366
1454 1454 1453 1454 1454 1454 1454 1454 1454 1454 1454 1453 1452 1451 1449 1446 1443 1439 1436 1433 1428 1423 1418 1414 1410 1406 1403 1399 1397 1395 1392 1389 1387 1385 1384 1382 1381 1379 1377 1376 1374 1373 1371 1370
1452 1451 1450 1450 1450 1450 1450 1450 1450 1450 1450 1449 1448 1447 1445 1443 1440 1437 1434 1431 1426 1421 1417 1414 1410 1406 1403 1401 1398 1396 1394 1392 1390 1388 1387 1386 1384 1383 1382 1380 1379 1377 1376 1375
1449 1448 1446 1445 1445 1445 1444 1444 1445 1444 1445 1444 1444 1443 1441 1440 1438 1435 1431 1427 1423 1420 1416 1413 1410 1407 1404 1401 1399 1397 1396 1394 1393 1391 1390 1389 1388 1387 1386 1384 1383 1382 1381 1380
1446 1444 1442 1441 1439 1438 1438 1439 1439 1439 1439 1440 1440 1438 1437 1436 1434 1432 1428 1425 1421 1418 1415 1413 1409 1407 1404 1402 1400 1398 1397 1395 1394 1394 1393 1392 1391 1391 1390 1389 1388 1387 1386 1386
1441 1439 1437 1435 1434 1432 1432 1433 1433 1434 1434 1434 1435 1434 1434 1432 1430 1428 1426 1423 1420 1417 1414 1412 1409 1407 1404 1402 1400 1399 1398 1397 1396 1395 1395 1395 1394 1394 1393 1393 1393 1392 1392 1391
1435 1432 1429 1427 1426 1426 1425 1426 1426 1427 1427 1428 1429 1429 1429 1428 1427 1425 1423 1421 1418 1415 1413 1410 1408 1406 1404 1402 1400 1399 1398 1397 1397 1397 1397 1397 1397 1396 1396 1396 1396 1396 1396 1396